Latrobe, PA

8:28 PM EDT on August 18, 2019 (GMT -0400)
Arnold Palmer Regional

Weather History for KLBE - May, 2019

Change the Weather History Date:

Tuesday, May 21, 2019

  Actual Average Record
Temperature  
Mean Temperature 52 °F -  
Max Temperature 59 °F 70 °F 86 °F (2013)
Min Temperature 46 °F 48 °F 30 °F (2002)
Degree Days  
Heating Degree Days 12    
Growing Degree Days 2 (Base 50)    
Moisture  
Dew Point 43 °F    
Average Humidity 70    
Maximum Humidity 100    
Minimum Humidity 51    
Precipitation  
Precipitation 0.00 in - - ()
Sea Level Pressure  
Sea Level Pressure 30.11 in    
Wind  
Wind Speed 8 mph (NNW)    
Max Wind Speed 17 mph    
Max Gust Speed 25 mph    
Visibility 12 miles    
Events      
Averages and records for this station are not official NWS values.
T = Trace of Precipitation, MM = Missing Value Source: NWS Daily Summary

Daily Weather History Graph

Daily Weather History Graph

Search for Another Location

Airport or City:

Astronomy

May. 21, 2019 Rise Set
Actual Time 5:56 AM EDT 8:32 PM EDT
Civil Twilight 5:25 AM EDT 9:03 PM EDT
Nautical Twilight 4:46 AM EDT 9:42 PM EDT
Astronomical Twilight 4:02 AM EDT 10:27 PM EDT
Moon 11:26 PM EDT (5/21) 8:11 AM EDT (5/21)
Length of Visible Light 15h 38m
Length of Day
14h 35m
Waning Gibbous, 91% of the Moon is Illuminated
May 21
Waning Gibbous
May 26
Last Quarter
Jun 3
New
Jun 10
First Quarter
Jun 17
Full

Hourly Weather History & Observations

Time (EDT) Temp. Windchill Dew Point Humidity Pressure Visibility Wind Dir Wind Speed Gust Speed Precip Events Conditions
12:15 AM 55.4 °F - 48.2 °F 77% 30.04 in 10.0 mi NNW 13.8 mph - N/A   Overcast
12:35 AM 53.6 °F - 44.6 °F 72% 30.04 in 10.0 mi NNW 9.2 mph - N/A   Overcast
12:55 AM 53.6 °F - 44.6 °F 72% 30.04 in 10.0 mi NW 10.4 mph 16.1 mph N/A   Overcast
1:15 AM 53.6 °F - 44.6 °F 72% 30.05 in 10.0 mi NW 9.2 mph - N/A   Overcast
1:35 AM 53.6 °F - 42.8 °F 67% 30.05 in 10.0 mi NW 8.1 mph - N/A   Overcast
1:55 AM 53.6 °F - 42.8 °F 67% 30.05 in 10.0 mi NW 8.1 mph - N/A   Overcast
2:15 AM 51.8 °F - 42.8 °F 71% 30.06 in 10.0 mi NW 5.8 mph - N/A   Overcast
2:35 AM 51.8 °F - 42.8 °F 71% 30.05 in 10.0 mi NW 6.9 mph 12.7 mph N/A   Overcast
2:55 AM 51.8 °F - 42.8 °F 71% 30.05 in 10.0 mi NW 5.8 mph - N/A   Overcast
3:15 AM 51.8 °F - 41.0 °F 67% 30.06 in 10.0 mi NW 8.1 mph - N/A   Overcast
3:35 AM 51.8 °F - 41.0 °F 67% 30.06 in 10.0 mi WNW 8.1 mph - N/A   Mostly Cloudy
3:55 AM 51.8 °F - 42.8 °F 71% 30.06 in 10.0 mi NW 6.9 mph - N/A   Overcast
4:15 AM 51.8 °F - 42.8 °F 71% 30.06 in 10.0 mi Variable 6.9 mph - N/A   Mostly Cloudy
4:35 AM 50.0 °F - 41.0 °F 71% 30.07 in 10.0 mi NW 9.2 mph - N/A   Overcast
4:55 AM 50.0 °F - 39.2 °F 66% 30.07 in 10.0 mi NW 6.9 mph - N/A   Overcast
5:15 AM 50.0 °F - 41.0 °F 71% 30.07 in 10.0 mi NNW 9.2 mph - N/A   Mostly Cloudy
5:35 AM 50.0 °F - 39.2 °F 66% 30.07 in 10.0 mi NNW 8.1 mph - N/A   Overcast
5:55 AM 48.2 °F - 37.4 °F 66% 30.09 in 10.0 mi NW 6.9 mph - N/A   Scattered Clouds
6:50 AM 46.4 °F 39.5 °F 41.0 °F 81% 30.10 in 10.0 mi NNW 17.3 mph - N/A   Mostly Cloudy
7:45 AM 48.2 °F - 37.4 °F 66% 30.13 in 10.0 mi North 11.5 mph - N/A   Mostly Cloudy
8:50 AM 48.2 °F - 37.4 °F 66% 30.14 in 10.0 mi NNE 6.9 mph - N/A   Partly Cloudy
9:45 AM 51.8 °F - 39.2 °F 62% 30.14 in 10.0 mi NE 9.2 mph - N/A   Clear
10:50 AM 53.6 °F - 39.2 °F 58% 30.17 in 10.0 mi NNW 5.8 mph - N/A   Scattered Clouds
11:45 AM 55.4 °F - 39.2 °F 54% 30.17 in 10.0 mi NNW 5.8 mph - N/A   Partly Cloudy
12:47 PM 57.2 °F - 39.2 °F 51% 30.12 in 20.0 mi NE 8.1 mph - N/A   Mostly Cloudy
1:47 PM 59.0 °F - 41.0 °F 51% 30.13 in 20.0 mi North 9.2 mph - N/A   Mostly Cloudy
2:51 PM 59.0 °F - 41.0 °F 51% 30.13 in 20.0 mi NNW 12.7 mph 25.3 mph N/A   Mostly Cloudy
3:51 PM 59.0 °F - 41.0 °F 51% 30.14 in 20.0 mi NNW 12.7 mph 25.3 mph N/A   Mostly Cloudy
4:51 PM 59.0 °F - 41.0 °F 51% 30.14 in 20.0 mi North 4.6 mph - N/A   Mostly Cloudy
5:51 PM 59.0 °F - 41.0 °F 51% 30.14 in 20.0 mi NNW 8.1 mph - N/A   Mostly Cloudy
6:51 PM 59.0 °F - 41.0 °F 51% 30.14 in 20.0 mi Calm Calm - N/A   Partly Cloudy
7:51 PM 57.2 °F - 42.8 °F 59% 30.16 in 20.0 mi Calm Calm - N/A   Scattered Clouds
8:51 PM 51.8 °F - 44.6 °F 76% 30.15 in 20.0 mi Calm Calm - N/A   Partly Cloudy
9:51 PM 51.8 °F - 48.2 °F 88% 30.16 in 20.0 mi Calm Calm - N/A   Clear
10:15 PM 50.0 °F - 48.2 °F 94% 30.17 in 10.0 mi Calm Calm - N/A   Scattered Clouds
10:35 PM 50.0 °F - 48.2 °F 94% 30.16 in 10.0 mi Calm Calm - N/A   Clear
10:55 PM 50.0 °F - 46.4 °F 87% 30.16 in 10.0 mi Calm Calm - N/A   Clear
11:15 PM 48.2 °F - 48.2 °F 100% 30.16 in 10.0 mi Calm Calm - N/A   Clear
11:35 PM 48.2 °F - 48.2 °F 100% 30.17 in 10.0 mi Calm Calm - N/A   Clear
11:55 PM 48.2 °F - 48.2 °F 100% 30.17 in 10.0 mi Calm Calm - N/A   Clear